Tracking 29892 objects as of 21-Nov-2024
HD Live streaming from Space Station
objects crossing your sky now

SL-16 DEB

Track SL-16 DEB now!
10-day predictions


NORAD ID: 22805
Int'l Code: 1993-059D
Perigee: 846.2 km
Apogee: 1,163.4 km
Inclination: 71.0 °
Period: 105.1 minutes
Semi major axis: 7375 km
RCS: 0.091 m2 (small)
Launch date: September 16, 1993
Source: Commonwealth of Independent States (former USSR) (CIS)
Launch site: TYURATAM MISSILE AND SPACE COMPLEX (TTMTR)

Note: This is SATELLITE DEBRIS
Your satellite tracking list
Your tracking list is empty




NASA's NSSDC Master Catalog

Two Line Element Set (TLE):
1 22805U 93059D   24325.80865249  .00000216  00000-0  24911-3 0  9990
2 22805  70.9726 268.8972 0215059 290.0695  86.5722 13.70533049558794
Source of the keplerian elements: AFSPC